Weather History for Gwinner, ND

Change the Weather History Date:

Monday, September 17, 2012

  Actual Average (KP67) Record (KP67)
Temperature  
Mean Temperature 45 °F -  
Max Temperature 55 °F 70 °F 79 °F (1997)
Min Temperature 35 °F 45 °F 46 °F (1997)
Degree Days  
Heating Degree Days 20    
Moisture  
Dew Point 42 °F    
Average Humidity 84    
Maximum Humidity 100    
Minimum Humidity 51    
Precipitation  
Precipitation 0.02 in - - ()
Sea Level Pressure  
Sea Level Pressure 30.10 in    
Wind  
Wind Speed 8 mph (NW)    
Max Wind Speed 17 mph    
Max Gust Speed 22 mph    
Visibility 10 miles    
Events      
Averages and records for this station are not official NWS values.
T = Trace of Precipitation, MM = Missing Value Source: NWS Daily Summary

Daily Weather History Graph

Daily Weather History Graph

Search for Another Location

Airport:

Trip Planner

Search our weather history database for the weather conditions in past years. The results will help you decide how hot, cold, wet, or windy it might be!

Date:

Astronomy

Sep. 17, 2012 Rise Set
Actual Time 7:11 AM CDT 7:37 PM CDT
Civil Twilight 6:41 AM CDT 8:07 PM CDT
Nautical Twilight 6:06 AM CDT 8:42 PM CDT
Astronomical Twilight 5:29 AM CDT 9:19 PM CDT
Moon 9:12 AM CDT (9/17) 8:08 PM CDT (9/17)
Length of Visible Light 13h 25m
Length of Day
12h 25m
Waxing Crescent, 3% of the Moon is Illuminated
Sep 17
Waxing Crescent
Sep 22
First Quarter
Sep 29
Full
Oct 8
Last Quarter
Oct 15
New

Hourly Weather History & Observations

Time (CDT) Temp. Windchill Dew Point Humidity Pressure Visibility Wind Dir Wind Speed Gust Speed Precip Events Conditions
12:15 AM 46.4 °F 41.9 °F 46.4 °F 100% 30.10 in 10.0 mi NNW 9.2 mph - 0.00 in   Clear
12:35 AM 48.2 °F - 46.4 °F 93% 30.09 in 10.0 mi NNW 9.2 mph - 0.00 in   Clear
12:55 AM 48.2 °F - 46.4 °F 93% 30.08 in 10.0 mi NNW 10.4 mph - 0.00 in   Clear
1:15 AM 46.4 °F 41.9 °F 46.4 °F 100% 30.09 in 10.0 mi NNW 9.2 mph - 0.00 in   Clear
1:35 AM 46.4 °F 42.4 °F 44.6 °F 93% 30.10 in 10.0 mi NNW 8.1 mph - 0.00 in   Clear
1:55 AM 46.4 °F 41.9 °F 44.6 °F 93% 30.10 in 10.0 mi NNW 9.2 mph - 0.00 in   Clear
2:15 AM 46.4 °F 42.4 °F 44.6 °F 93% 30.11 in 10.0 mi NW 8.1 mph - 0.00 in   Clear
2:35 AM 44.6 °F 40.2 °F 44.6 °F 100% 30.11 in 10.0 mi NW 8.1 mph - 0.00 in   Clear
2:55 AM 44.6 °F 40.7 °F 44.6 °F 100% 30.11 in 10.0 mi NW 6.9 mph - 0.00 in   Clear
3:15 AM 46.4 °F 43.5 °F 44.6 °F 93% 30.11 in 10.0 mi NW 5.8 mph - 0.00 in   Clear
3:35 AM 46.4 °F 42.9 °F 44.6 °F 93% 30.11 in 10.0 mi NW 6.9 mph - 0.00 in   Clear
3:55 AM 46.4 °F 43.5 °F 44.6 °F 93% 30.11 in 10.0 mi WNW 5.8 mph - 0.00 in   Clear
4:15 AM 44.6 °F 41.4 °F 44.6 °F 100% 30.12 in 10.0 mi West 5.8 mph - 0.00 in   Clear
4:35 AM 44.6 °F 42.2 °F 44.6 °F 100% 30.11 in 10.0 mi WNW 4.6 mph - 0.00 in   Clear
4:55 AM 44.6 °F 41.4 °F 44.6 °F 100% 30.11 in 10.0 mi WNW 5.8 mph - 0.00 in   Mostly Cloudy
5:15 AM 46.4 °F 43.5 °F 44.6 °F 93% 30.11 in 10.0 mi WNW 5.8 mph - 0.00 in   Overcast
5:35 AM 46.4 °F 45.2 °F 46.4 °F 100% 30.10 in 10.0 mi WNW 3.5 mph - 0.00 in   Overcast
5:55 AM 46.4 °F 43.5 °F 44.6 °F 93% 30.11 in 10.0 mi West 5.8 mph - 0.00 in   Mostly Cloudy
6:15 AM 46.4 °F 45.2 °F 44.6 °F 93% 30.11 in 10.0 mi WSW 3.5 mph - 0.00 in   Overcast
6:35 AM 44.6 °F 41.4 °F 44.6 °F 100% 30.10 in 10.0 mi West 5.8 mph - 0.00 in   Overcast
6:55 AM 46.4 °F 44.3 °F 46.4 °F 100% 30.10 in 10.0 mi West 4.6 mph - 0.00 in   Mostly Cloudy
7:15 AM 46.4 °F 42.9 °F 46.4 °F 100% 30.11 in 10.0 mi West 6.9 mph - 0.00 in   Overcast
7:35 AM 46.4 °F 42.9 °F 46.4 °F 100% 30.11 in 10.0 mi West 6.9 mph - 0.00 in   Overcast
7:55 AM 46.4 °F 42.4 °F 46.4 °F 100% 30.11 in 9.0 mi West 8.1 mph - 0.00 in   Overcast
8:15 AM 46.4 °F 44.3 °F 46.4 °F 100% 30.11 in 2.0 mi WSW 4.6 mph - 0.01 in   Overcast
8:35 AM 46.4 °F 42.9 °F 46.4 °F 100% 30.10 in 8.0 mi WSW 6.9 mph - 0.01 in   Mostly Cloudy
8:55 AM 48.2 °F - 48.2 °F 100% 30.10 in 10.0 mi WSW 8.1 mph - 0.01 in   Overcast
9:15 AM 48.2 °F - 48.2 °F 100% 30.11 in 10.0 mi WSW 8.1 mph - 0.00 in   Overcast
9:55 AM 51.8 °F - 48.2 °F 88% 30.11 in 10.0 mi West 6.9 mph - 0.00 in   Scattered Clouds
10:35 AM 51.8 °F - 48.2 °F 88% 30.11 in 10.0 mi NW 8.1 mph - 0.00 in   Mostly Cloudy
10:55 AM 51.8 °F - 48.2 °F 88% 30.12 in 10.0 mi NNW 12.7 mph - 0.00 in   Overcast
11:15 AM 50.0 °F - 48.2 °F 94% 30.12 in 10.0 mi NNW 16.1 mph - 0.00 in   Overcast
11:35 AM 48.2 °F - 44.6 °F 87% 30.13 in 10.0 mi North 17.3 mph - 0.01 in   Overcast
11:55 AM 48.2 °F - 44.6 °F 87% 30.13 in 10.0 mi North 15.0 mph - 0.01 in   Overcast
12:15 PM 48.2 °F - 44.6 °F 87% 30.12 in 10.0 mi NE 9.2 mph - 0.00 in   Overcast
12:55 PM 50.0 °F - 42.8 °F 76% 30.12 in 10.0 mi NNW 12.7 mph - 0.00 in   Scattered Clouds
1:15 PM 51.8 °F - 44.6 °F 76% 30.11 in 10.0 mi North 11.5 mph - 0.00 in   Partly Cloudy
1:35 PM 51.8 °F - 44.6 °F 76% 30.11 in 10.0 mi North 12.7 mph - 0.00 in   Scattered Clouds
1:55 PM 51.8 °F - 42.8 °F 71% 30.11 in 10.0 mi North 15.0 mph 21.9 mph 0.00 in   Mostly Cloudy
2:15 PM 53.6 °F - 42.8 °F 67% 30.10 in 10.0 mi North 8.1 mph - 0.00 in   Scattered Clouds
2:35 PM 55.4 °F - 39.2 °F 54% 30.09 in 10.0 mi North 9.2 mph - 0.00 in   Partly Cloudy
2:55 PM 55.4 °F - 39.2 °F 54% 30.08 in 10.0 mi North 12.7 mph - 0.00 in   Scattered Clouds
3:15 PM 55.4 °F - 37.4 °F 51% 30.08 in 10.0 mi North 11.5 mph 16.1 mph 0.00 in   Scattered Clouds
3:35 PM 53.6 °F - 42.8 °F 67% 30.08 in 7.0 mi NNE 13.8 mph 21.9 mph 0.00 in   Mostly Cloudy
3:55 PM 55.4 °F - 37.4 °F 51% 30.08 in 10.0 mi North 15.0 mph 19.6 mph 0.00 in   Partly Cloudy
4:15 PM 53.6 °F - 39.2 °F 58% 30.08 in 10.0 mi NE 12.7 mph - 0.00 in   Partly Cloudy
4:55 PM 53.6 °F - 37.4 °F 54% 30.09 in 10.0 mi NNE 12.7 mph - 0.00 in   Clear
5:35 PM 53.6 °F - 37.4 °F 54% 30.08 in 10.0 mi North 10.4 mph - 0.00 in   Partly Cloudy
5:55 PM 53.6 °F - 37.4 °F 54% 30.09 in 10.0 mi North 9.2 mph - 0.00 in   Partly Cloudy
6:15 PM 53.6 °F - 37.4 °F 54% 30.08 in 10.0 mi North 8.1 mph - 0.00 in   Partly Cloudy
6:35 PM 51.8 °F - 37.4 °F 58% 30.09 in 10.0 mi North 6.9 mph - 0.00 in   Partly Cloudy
6:55 PM 53.6 °F - 37.4 °F 54% 30.09 in 10.0 mi Calm Calm - 0.00 in   Scattered Clouds
7:15 PM 51.8 °F - 37.4 °F 58% 30.08 in 10.0 mi Calm Calm - 0.00 in   Clear
7:35 PM 50.0 °F - 35.6 °F 58% 30.08 in 10.0 mi Calm Calm - 0.00 in   Clear
7:55 PM 48.2 °F - 37.4 °F 66% 30.08 in 10.0 mi Calm Calm - 0.00 in   Clear
8:15 PM 46.4 °F - 37.4 °F 71% 30.09 in 10.0 mi Calm Calm - 0.00 in   Clear
8:35 PM 44.6 °F - 37.4 °F 76% 30.09 in 10.0 mi Calm Calm - 0.00 in   Partly Cloudy
8:55 PM 44.6 °F - 37.4 °F 76% 30.09 in 10.0 mi Calm Calm - 0.00 in   Partly Cloudy
9:15 PM 39.2 °F - 37.4 °F 93% 30.10 in 10.0 mi Calm Calm - 0.00 in   Clear
9:35 PM 39.2 °F - 37.4 °F 93% 30.10 in 10.0 mi Calm Calm - 0.00 in   Clear
9:55 PM 39.2 °F - 37.4 °F 93% 30.10 in 10.0 mi Calm Calm - 0.00 in   Clear
10:15 PM 39.2 °F - 37.4 °F 93% 30.10 in 10.0 mi Calm Calm - 0.00 in   Clear
10:35 PM 37.4 °F - 35.6 °F 93% 30.10 in 10.0 mi Calm Calm - 0.00 in   Clear
10:55 PM 37.4 °F 34.9 °F 37.4 °F 100% 30.10 in 10.0 mi North 3.5 mph - 0.00 in   Clear
11:15 PM 37.4 °F 34.9 °F 35.6 °F 93% 30.10 in 10.0 mi NW 3.5 mph - 0.00 in   Clear
11:35 PM 35.6 °F 32.8 °F 33.8 °F 93% 30.10 in 10.0 mi NW 3.5 mph - 0.00 in   Clear
11:55 PM 35.6 °F 32.8 °F 33.8 °F 93% 30.11 in 10.0 mi WNW 3.5 mph - 0.00 in   Clear